Location: Waldport
(44.4270°N, 124.0680°W)
Time: 19:53:42
(UTC-07:00)

Daily predictions for brighter satellites

Satellite Brightness Start Highest point End
(mag) Time Altitude Azimuth Time Altitude Azimuth Time Altitude Azimuth
Spot 2 Rocket 4.3 21:13:10 10° S 21:18:09 54° W 21:23:11 10° NNW
Resurs 01 Rocket 3.0 21:15:59 10° SSW 21:20:09 40° W 21:24:21 10° NNW
NOSS 3-2 (A) 4.1 21:15:27 10° SW 21:21:26 63° NW 21:28:07 10° NNE
Shenzhou-11 Module 4.4 21:23:19 10° WSW 21:25:06 14° SSW 21:26:53 10° S
Cosmos 1825 3.2 21:22:07 10° SSE 21:25:20 27° E 21:28:34 10° NNE
Okean 1-7 3.3 21:23:35 10° N 21:27:55 53° ENE 21:32:13 10° SSE
Cosmos 1782 3.2 21:27:20 10° N 21:31:12 46° ENE 21:35:02 10° SSE
USA 215 3.6 21:26:10 10° ESE 21:32:35 60° NNE 21:39:03 10° NW
Meteor 2-3 Rocket 4.0 21:31:10 10° SSW 21:36:52 76° WNW 21:42:33 10° N
Cosmos 2279 Rocket 4.2 21:34:14 10° N 21:40:25 58° ENE 21:46:33 10° SSE
SPOT 5 3.9 21:36:09 10° SE 21:40:59 36° ENE 21:45:45 10° N
NOSS 3-2 (C) 4.2 21:36:56 10° SW 21:42:56 60° NW 21:49:37 10° NNE
Envisat 4.1 21:40:28 10° S 21:45:18 44° W 21:50:10 10° NNW
Cosmos 1892 4.1 21:41:40 10° SSW 21:45:19 41° WNW 21:48:59 10° N
Cosmos 1703 Rocket 3.9 21:41:05 10° NNW 21:45:29 68° W 21:49:49 10° S
Cosmos 372 Rocket 4.2 21:40:40 10° S 21:45:34 48° ESE 21:50:29 10° NNE
MetOp-A 4.3 21:42:50 10° SSE 21:48:04 59° ENE 21:53:21 10° N
deb Kosmos-1763 4.2 21:45:40 10° NNW 21:49:25 66° ENE 21:52:38 14° SSE
CENTAUR R/B 2.5 21:47:12 10° SSW 21:53:08 67° ESE 21:59:57 10° NE
Cosmos 1862 4.0 21:50:17 12° SSE 21:53:36 34° E 21:57:13 10° NNE
Helios 1B rocket 2.6 21:50:25 10° N 21:54:32 76° WNW 21:58:37 10° SSW
SPOT 1/Viking Rocket 4.4 21:51:10 13° SE 21:55:14 36° ENE 21:59:57 10° N
Cosmos 1269 Rocket 4.0 21:52:04 10° NNW 21:57:24 77° ENE 22:02:02 14° SSE
Cosmos 1733 Rocket 3.9 21:54:41 14° SE 21:57:45 30° E 22:01:33 10° NNE
Cosmos 1943 Rocket 2.1 21:52:24 10° SSW 21:57:56 66° ESE 22:03:27 10° NNE
Cosmos 1340 2.7 21:54:30 10° N 21:58:16 60° ENE 22:01:15 15° SSE
Cosmos 1125 Rocket 3.4 21:56:08 10° SSW 22:01:22 80° ESE 22:06:37 10° NNE
DNEPR-1 R/B 3.7 21:58:21 10° SSW 22:03:32 78° ESE 22:08:00 10° NE
Lacrosse 4 Rocket 1.6 21:59:28 10° NNW 22:03:59 77° ENE 22:07:15 18° SE
SAR-Lupe-4 4.1 22:01:09 10° S 22:04:40 58° WSW 22:08:13 10° NNW
Cosmos 1869 Rocket 4.1 22:01:29 10° SSW 22:05:46 61° W 22:10:07 10° N
NOAA 11 4.4 22:08:08 10° S 22:13:36 74° WSW 22:19:07 10° NNW
ATLAS CENTAUR R/B 3.1 22:15:11 14° E 22:15:11 14° E 22:16:26 10° ENE
YAOGAN 6 4.4 22:11:06 10° SSW 22:14:21 29° W 22:17:38 10° NNW
Cosmos 2263 4.4 22:08:44 10° SSW 22:14:30 76° WNW 22:20:16 10° NNE
Cosmos 1606 3.3 22:13:10 10° NNW 22:16:53 53° W 22:20:25 11° S
Meteor 1-29 4.4 22:17:09 10° N 22:20:28 39° WNW 22:23:44 10° SW
SL-08 RB Rocket 3.8 22:17:13 19° SSE 22:20:35 73° ENE 22:25:15 10° N
Cosmos 2369 Rocket 3.3 22:18:37 10° SW 22:24:04 47° WNW 22:29:36 10° NNE
Cosmos 158 Rocket 4.5 22:21:10 10° NNW 22:25:55 52° WSW 22:29:52 14° S
Cosmos 494 Rocket 4.3 22:21:45 10° NNW 22:26:52 52° ENE 22:29:48 24° SE
GPS 2-04 Rocket1 4.4 22:25:18 10° SW 22:27:29 15° SSW 22:27:39 15° SSW
Cosmos 1867 3.8 22:23:52 10° NNW 22:29:18 60° NE 22:32:34 24° SE
Cosmos 1833 4.4 22:25:56 10° NNW 22:31:44 74° WSW 22:35:41 21° SSE
CARTOSAT-1 4.5 22:30:28 24° ESE 22:32:18 34° ENE 22:36:13 10° N
Lacrosse 5 rocket 2.6 22:29:03 10° WSW 22:32:25 37° NNW 22:35:53 10° NE
Cosmos 1674 Rocket 3.6 22:29:01 10° N 22:33:19 62° E 22:35:25 29° SSE
Cosmos 1378 Rocket 4.4 22:29:21 10° N 22:33:28 35° ENE 22:35:06 26° ESE
H-2A R/B 2.1 22:32:21 22° SSE 22:35:59 82° ENE 22:41:19 10° NNW
Milstar 3 4.1 22:27:43 10° SW 22:36:17 26° S 22:39:07 22° SSE
Cosmos 2297 Rocket 4.1 22:37:21 10° N 22:41:21 19° NE 22:45:04 11° E
ATLAS 5 CENTAUR R/B 2.9 22:35:55 10° NW 22:41:44 52° WSW 22:45:58 21° S
Landsat 7 3.9 22:39:41 28° SE 22:42:04 63° ENE 22:46:47 10° N
ISS -2.0 22:39:22 10° W 22:42:21 33° NNW 22:45:22 10° NE
Cosmos 1408 4.5 22:39:15 10° SW 22:42:34 30° WNW 22:45:55 10° NNW
COSMOS 2455 4.5 22:37:20 10° WSW 22:42:50 36° NW 22:48:23 10° NNE
Cosmos 2344 3.6 22:36:11 10° SSW 22:43:49 82° SE 22:52:28 10° NE
Okean 3 3.7 22:43:16 10° N 22:47:22 53° ENE 22:48:42 36° SE
ERS-1 Rocket 4.3 22:43:50 10° SSW 22:48:24 34° W 22:52:59 10° NNW
H-2A R/B 3.1 22:47:58 26° E 22:49:06 30° ENE 22:52:44 10° N
IGS 5A 3.9 22:49:29 35° ESE 22:50:47 48° ENE 22:54:48 10° N
Cosmos 1656 Rocket 3.5 22:48:45 10° SSW 22:54:12 84° ESE 22:59:47 10° NNE
ARGOS 4.0 22:51:55 16° SSW 22:56:02 46° W 23:01:13 10° NNW
Terra 1.9 22:55:21 35° SE 22:57:14 62° ENE 23:01:56 10° N
Meteor 1-27 Rocket 4.5 22:52:28 10° NNW 22:58:00 49° W 23:02:16 16° SSW
Cosmos 1437 2.6 22:58:18 10° NNW 23:01:31 80° W 23:01:53 67° SSW
Nadezhda 4 Rocket 4.2 22:59:16 12° SSW 23:05:05 69° W 23:11:14 10° N
Cosmos 1092 Rocket 3.9 23:01:10 22° S 23:05:20 87° E 23:11:31 10° N
Cosmos 1908 Rocket 3.5 23:09:52 40° S 23:11:26 84° E 23:15:54 10° N
Cosmos 1633 4.4 23:15:43 20° ENE 23:15:43 20° ENE 23:17:36 10° NE
Cosmos 1627 Rocket 4.5 23:11:45 32° SSE 23:14:48 69° E 23:21:07 10° NNE
USA 215 3.7 23:12:40 29° S 23:15:42 48° SW 23:22:02 10° WNW
Cosmos 1553 Rocket 4.5 23:12:41 10° N 23:18:49 47° ENE 23:21:03 34° SE
SPOT 5 4.4 23:15:21 16° SSW 23:18:59 33° W 23:23:46 10° NNW
ARGOS Delta rocket 4.3 23:15:41 10° NNE 23:19:50 36° E 23:19:52 36° E
Okean 2 Rocket 3.5 23:23:28 44° E 23:23:40 44° E 23:27:54 10° NNE
Meteor 1-25 Rocket 4.3 23:23:39 40° SSE 23:25:41 66° E 23:31:30 10° NNE
Cosmos 2251 Rocket 3.8 23:21:42 10° NNW 23:26:51 59° WSW 23:28:39 38° SSW
CZ-2C R/B 4.1 23:23:40 10° NE 23:27:13 20° E 23:27:13 20° E
DMSP B5D2-2 4.4 23:24:26 10° N 23:29:35 62° WNW 23:32:53 22° SW
Cosmos 1812 2.6 23:26:42 10° N 23:30:35 85° W 23:30:51 77° SSW
Cosmos 2227 Rocket 2.8 23:26:14 10° NNW 23:31:43 47° ENE 23:33:36 35° ESE
deb Chang Zheng 4 3.6 23:29:39 10° NNE 23:34:05 63° ESE 23:34:25 61° SE
Spot 4 3.8 23:35:23 55° SE 23:36:23 76° ENE 23:41:14 10° N
CZ-4 R/B 3.7 23:33:35 10° NNE 23:38:14 70° ESE 23:38:51 61° SSE
Cosmos 1782 Rocket 3.5 23:38:13 62° SSW 23:38:56 85° W 23:43:21 10° N
Cosmos 2219 3.5 23:33:34 10° NNW 23:39:13 58° WSW 23:41:02 40° SSW
Lacrosse 4 Rocket 4.0 23:40:18 10° W 23:42:02 12° WSW 23:43:36 10° SW
CENTAUR R/B 4.3 23:38:42 10° W 23:44:22 33° NW 23:50:47 10° NNE
Cosmos 405 Rocket 3.1 23:48:54 10° NNW 23:52:20 52° W 23:52:20 52° W
ATLAS CENTAUR R/B 1.9 23:51:21 35° WSW 23:52:40 52° NW 23:56:26 10° NNE
GEOS 3 Rocket 3.9 23:52:33 46° SSW 23:53:27 52° WSW 23:58:33 10° NW
